Weather History for Moose Lake, MN

Change the Weather History Date:

Saturday, May 16, 2009

  Actual Average Record
Temperature  
Mean Temperature 42 °F -  
Max Temperature 51 °F 71 °F 90 °F (1987)
Min Temperature 33 °F 40 °F 22 °F (1956)
Degree Days  
Heating Degree Days 23    
Moisture  
Dew Point 24 °F    
Average Humidity 56    
Maximum Humidity 87    
Minimum Humidity 26    
Precipitation  
Precipitation 0.00 in - - ()
Sea Level Pressure  
Sea Level Pressure 30.07 in    
Wind  
Wind Speed 15 mph (NW)    
Max Wind Speed 23 mph    
Max Gust Speed 32 mph    
Visibility 10 miles    
Events Rain    
Averages and records for this station are not official NWS values.
T = Trace of Precipitation, MM = Missing Value Source: NWS Daily Summary

Daily Weather History Graph

Daily Weather History Graph

Search for Another Location

Airport:

Trip Planner

Search our weather history database for the weather conditions in past years. The results will help you decide how hot, cold, wet, or windy it might be!

Date:

Astronomy

May. 16, 2009 Rise Set
Actual Time 5:36 AM CDT 8:39 PM CDT
Civil Twilight 5:00 AM CDT 9:15 PM CDT
Nautical Twilight 4:14 AM CDT 10:01 PM CDT
Astronomical Twilight 3:19 AM CDT 10:57 PM CDT
Moon 1:48 AM CDT (5/16) 11:57 AM CDT (5/16)
Length of Visible Light 16h 14m
Length of Day
15h 03m
Waning Gibbous, 56% of the Moon is Illuminated
May 16
Waning Gibbous
May 17
Last Quarter
May 24
New
May 30
First Quarter
Jun 7
Full

Hourly Weather History & Observations

Time (CDT) Temp. Windchill Dew Point Humidity Pressure Visibility Wind Dir Wind Speed Gust Speed Precip Events Conditions
12:16 AM 37.4 °F 28.5 °F 33.8 °F 87% 29.91 in 7.0 mi WNW 15.0 mph 24.2 mph N/A Rain Light Rain
12:36 AM 37.4 °F 29.3 °F 33.8 °F 87% 29.91 in 10.0 mi WNW 12.7 mph 21.9 mph N/A   Overcast
12:56 AM 37.4 °F 28.2 °F 32.0 °F 81% 29.92 in 7.0 mi WNW 16.1 mph 27.6 mph N/A Rain Light Rain
1:17 AM 37.4 °F 29.3 °F 32.0 °F 81% 29.94 in 10.0 mi NW 12.7 mph 23.0 mph N/A   Overcast
1:36 AM 37.4 °F 28.5 °F 30.2 °F 75% 29.94 in 10.0 mi WNW 15.0 mph 21.9 mph N/A   Overcast
1:56 AM 35.6 °F 27.5 °F 32.0 °F 87% 29.94 in 10.0 mi WNW 11.5 mph 23.0 mph N/A   Overcast
2:16 AM 35.6 °F 26.2 °F 30.2 °F 81% 29.94 in 10.0 mi NW 15.0 mph 28.8 mph N/A   Overcast
2:36 AM 35.6 °F 26.6 °F 30.2 °F 81% 29.94 in 10.0 mi WNW 13.8 mph 26.5 mph N/A   Overcast
2:56 AM 35.6 °F 25.9 °F 30.2 °F 81% 29.94 in 10.0 mi NW 16.1 mph 21.9 mph N/A   Overcast
3:16 AM 35.6 °F 28.0 °F 32.0 °F 87% 29.95 in 10.0 mi WNW 10.4 mph 23.0 mph N/A   Overcast
3:36 AM 35.6 °F 25.9 °F 28.4 °F 75% 29.95 in 10.0 mi WNW 16.1 mph 27.6 mph N/A   Overcast
3:56 AM 35.6 °F 28.0 °F 30.2 °F 81% 29.96 in 10.0 mi WNW 10.4 mph 19.6 mph N/A   Overcast
4:16 AM 35.6 °F 27.5 °F 30.2 °F 81% 29.97 in 10.0 mi WNW 11.5 mph 19.6 mph N/A   Overcast
4:36 AM 35.6 °F 26.2 °F 28.4 °F 75% 29.98 in 10.0 mi WNW 15.0 mph 23.0 mph N/A   Overcast
4:56 AM 35.6 °F 24.8 °F 28.4 °F 75% 29.98 in 10.0 mi WNW 19.6 mph 24.2 mph N/A   Overcast
5:17 AM 33.8 °F 24.3 °F 28.4 °F 81% 29.99 in 10.0 mi NW 13.8 mph 20.7 mph N/A   Overcast
5:36 AM 33.8 °F 25.8 °F 28.4 °F 81% 30.00 in 10.0 mi WNW 10.4 mph 24.2 mph N/A   Overcast
5:56 AM 33.8 °F 23.9 °F 28.4 °F 81% 30.00 in 10.0 mi WNW 15.0 mph 20.7 mph N/A   Overcast
6:16 AM 33.8 °F 23.5 °F 28.4 °F 81% 30.01 in 10.0 mi NW 16.1 mph 24.2 mph N/A   Overcast
6:36 AM 33.8 °F 25.3 °F 26.6 °F 75% 30.03 in 10.0 mi WNW 11.5 mph 19.6 mph N/A   Overcast
6:56 AM 33.8 °F 25.3 °F 26.6 °F 75% 30.03 in 10.0 mi WNW 11.5 mph 23.0 mph N/A   Overcast
7:16 AM 33.8 °F 23.2 °F 26.6 °F 75% 30.04 in 10.0 mi NW 17.3 mph 27.6 mph N/A   Overcast
7:36 AM 33.8 °F 23.9 °F 24.8 °F 70% 30.04 in 10.0 mi WNW 15.0 mph 23.0 mph N/A   Overcast
7:56 AM 33.8 °F 25.3 °F 24.8 °F 70% 30.05 in 10.0 mi NW 11.5 mph 24.2 mph N/A   Overcast
8:16 AM 33.8 °F 22.5 °F 24.8 °F 70% 30.07 in 10.0 mi NNW 19.6 mph 26.5 mph N/A   Overcast
8:36 AM 35.6 °F 25.2 °F 24.8 °F 65% 30.09 in 10.0 mi NW 18.4 mph 27.6 mph N/A   Overcast
8:56 AM 35.6 °F 28.0 °F 26.6 °F 70% 30.09 in 10.0 mi WNW 10.4 mph 21.9 mph N/A   Overcast
9:16 AM 35.6 °F 26.2 °F 26.6 °F 70% 30.10 in 10.0 mi WNW 15.0 mph 23.0 mph N/A   Overcast
9:36 AM 35.6 °F 26.6 °F 26.6 °F 70% 30.11 in 10.0 mi WNW 13.8 mph 26.5 mph N/A   Overcast
9:56 AM 37.4 °F 28.9 °F 26.6 °F 65% 30.11 in 10.0 mi NW 13.8 mph 29.9 mph N/A   Overcast
10:16 AM 37.4 °F 27.8 °F 24.8 °F 60% 30.12 in 10.0 mi NW 17.3 mph 27.6 mph N/A   Overcast
10:36 AM 37.4 °F 27.5 °F 23.0 °F 56% 30.12 in 10.0 mi WNW 18.4 mph 31.1 mph N/A   Mostly Cloudy
10:56 AM 39.2 °F 30.2 °F 23.0 °F 52% 30.13 in 10.0 mi NW 17.3 mph 27.6 mph N/A   Scattered Clouds
11:16 AM 42.8 °F 35.4 °F 24.8 °F 49% 30.13 in 10.0 mi WNW 15.0 mph 25.3 mph N/A   Scattered Clouds
11:36 AM 42.8 °F 33.8 °F 19.4 °F 39% 30.13 in 10.0 mi NW 21.9 mph 31.1 mph N/A   Scattered Clouds
11:56 AM 42.8 °F 35.1 °F 19.4 °F 39% 30.13 in 10.0 mi WNW 16.1 mph 27.6 mph N/A   Scattered Clouds
12:16 PM 44.6 °F 36.6 °F 19.4 °F 37% 30.15 in 10.0 mi West 19.6 mph 28.8 mph N/A   Clear
12:36 PM 44.6 °F 37.4 °F 17.6 °F 34% 30.15 in 10.0 mi WNW 16.1 mph 32.2 mph N/A   Scattered Clouds
12:56 PM 44.6 °F 36.6 °F 17.6 °F 34% 30.15 in 10.0 mi West 19.6 mph 31.1 mph N/A   Scattered Clouds
1:16 PM 46.4 °F 39.5 °F 17.6 °F 32% 30.15 in 10.0 mi WNW 17.3 mph 27.6 mph N/A   Scattered Clouds
1:36 PM 46.4 °F 39.8 °F 19.4 °F 34% 30.16 in 10.0 mi NW 16.1 mph 31.1 mph N/A   Clear
1:57 PM 46.4 °F 38.5 °F 19.4 °F 34% 30.15 in 10.0 mi WNW 21.9 mph 28.8 mph N/A   Scattered Clouds
2:16 PM 46.4 °F 39.2 °F 17.6 °F 32% 30.16 in 10.0 mi NNW 18.4 mph 27.6 mph N/A   Scattered Clouds
2:36 PM 46.4 °F 38.3 °F 15.8 °F 29% 30.16 in 10.0 mi NW 23.0 mph 31.1 mph N/A   Clear
2:56 PM 48.2 °F - 17.6 °F 30% 30.16 in 10.0 mi WNW 19.6 mph 28.8 mph N/A   Clear
3:16 PM 50.0 °F - 17.6 °F 28% 30.16 in 10.0 mi WNW 18.4 mph 29.9 mph N/A   Clear
3:36 PM 50.0 °F - 17.6 °F 28% 30.16 in 10.0 mi NW 16.1 mph 28.8 mph N/A   Clear
3:56 PM 50.0 °F - 17.6 °F 28% 30.16 in 10.0 mi NW 15.0 mph 27.6 mph N/A   Clear
4:16 PM 50.0 °F - 17.6 °F 28% 30.16 in 10.0 mi NNW 16.1 mph 32.2 mph N/A   Clear
4:36 PM 51.8 °F - 17.6 °F 26% 30.17 in 10.0 mi NW 21.9 mph 28.8 mph N/A   Clear
4:56 PM 51.8 °F - 19.4 °F 28% 30.16 in 10.0 mi WNW 18.4 mph 27.6 mph N/A   Clear
5:16 PM 51.8 °F - 19.4 °F 28% 30.17 in 10.0 mi NW 17.3 mph 25.3 mph N/A   Clear
5:36 PM 51.8 °F - 19.4 °F 28% 30.17 in 10.0 mi NW 18.4 mph 27.6 mph N/A   Clear
5:56 PM 51.8 °F - 19.4 °F 28% 30.17 in 10.0 mi NW 18.4 mph 31.1 mph N/A   Clear
6:16 PM 51.8 °F - 19.4 °F 28% 30.17 in 10.0 mi WNW 17.3 mph 24.2 mph N/A   Clear
6:36 PM 51.8 °F - 19.4 °F 28% 30.17 in 10.0 mi NW 15.0 mph 21.9 mph N/A   Clear
6:56 PM 51.8 °F - 17.6 °F 26% 30.17 in 10.0 mi NW 15.0 mph 20.7 mph N/A   Clear
7:16 PM 50.0 °F - 17.6 °F 28% 30.18 in 10.0 mi WNW 8.1 mph 19.6 mph N/A   Clear
7:36 PM 50.0 °F - 17.6 °F 28% 30.18 in 10.0 mi WNW 11.5 mph 20.7 mph N/A   Clear
7:56 PM 48.2 °F - 17.6 °F 30% 30.18 in 10.0 mi WNW 12.7 mph 18.4 mph N/A   Clear
8:16 PM 48.2 °F - 17.6 °F 30% 30.18 in 10.0 mi WNW 10.4 mph 19.6 mph N/A   Clear
8:36 PM 46.4 °F 43.5 °F 19.4 °F 34% 30.19 in 10.0 mi WNW 5.8 mph - N/A   Clear
8:56 PM 46.4 °F 42.9 °F 19.4 °F 34% 30.19 in 10.0 mi WNW 6.9 mph - N/A   Clear
9:16 PM 46.4 °F 44.3 °F 19.4 °F 34% 30.19 in 10.0 mi WNW 4.6 mph - N/A   Clear
9:36 PM 44.6 °F 43.1 °F 21.2 °F 39% 30.20 in 10.0 mi WNW 3.5 mph - N/A   Clear
9:56 PM 42.8 °F 40.1 °F 19.4 °F 39% 30.20 in 10.0 mi WNW 4.6 mph - N/A   Scattered Clouds
10:16 PM 42.8 °F 41.1 °F 24.8 °F 49% 30.21 in 10.0 mi West 3.5 mph - N/A   Mostly Cloudy
10:36 PM 41.0 °F 39.0 °F 26.6 °F 57% 30.21 in 10.0 mi West 3.5 mph - N/A   Scattered Clouds
10:56 PM 35.6 °F - 28.4 °F 75% 30.21 in 10.0 mi Calm Calm - N/A   Clear
11:16 PM 35.6 °F 31.7 °F 30.2 °F 81% 30.21 in 10.0 mi WSW 4.6 mph - N/A   Clear
11:36 PM 33.8 °F 29.6 °F 24.8 °F 70% 30.22 in 10.0 mi WSW 4.6 mph - N/A   Scattered Clouds
11:56 PM 33.8 °F 29.6 °F 26.6 °F 75% 30.22 in 10.0 mi West 4.6 mph - N/A   Clear